Location: Unspecified
(0.0000°N, 0.0000°E)
Time: 16:16:41
(UTC+00:00)

UNISAT 6 - Visible Passes

Search period start: 31 May 2023 00:00
Search period end: 10 June 2023 00:00
Orbit: 599 x 680 km, 97.7° (Epoch: 31 May)

Date Brightness Start Highest point End Pass type
(mag) Time Alt. Az. Time Alt. Az. Time Alt. Az.
31 May ? 04:26:20 10° SE 04:29:58 24° E 04:33:33 10° NNE visible
01 Jun ? 04:48:52 10° SSE 04:53:16 50° E 04:57:33 10° N visible
02 Jun ? 05:12:02 10° S 05:16:33 74° WSW 05:20:58 10° NNW visible
03 Jun ? 04:03:05 10° E 04:03:32 10° E 04:03:58 10° ENE visible
04 Jun ? 04:23:21 10° SE 04:26:49 22° E 04:30:11 10° NNE visible
05 Jun ? 04:45:47 10° SSE 04:50:05 46° E 04:54:17 10° N visible
06 Jun ? 05:08:52 10° S 05:13:21 80° W 05:17:43 10° NNW visible
08 Jun ? 04:20:20 10° SE 04:23:33 20° E 04:26:43 10° NNE visible
09 Jun ? 04:42:37 10° SSE 04:46:49 41° E 04:50:54 10° N visible
